Location: Risskov
(56.1972°N, 10.2480°E)
Time: 00:35:03
(UTC+00:00)

Cosmos 1452 Rocket - Pass Details

Date: 05 July 2020
Orbit: 768 x 774 km, 74.1° (Epoch: 03 August)

Event Time Altitude Azimuth Distance (km) Brightness Sun altitude
Rises 23:23:25 0° 329° (NNW) 3,261 7.9 -11.1°
Reaches altitude 10° 23:25:52 10° 324° (NW) 2,328 6.9 -11.1°
Maximum altitude 23:30:56 49° 251° (WSW) 988 3.9 -11.1°
Enters shadow 23:35:04 15° 181° (S) 1,979 5.0 -11.1°
